Regional Weather Roundup
Issued by NWS

Home | Current Version | Previous Version | Text Only | Print | Product List | Glossary On
Versions: 1 2 3 4 5 6 7 8 9 10 11 12 13 14 15 16 17 18 19 20 21 22 23 24 25 26 27 28 29 30 31 32 33 34 35 36 37 38 39 40 41 42 43 44 45 46 47 48 49 50
000
ASUS44 KFWD 180203
RWRTX
NORTH TEXAS HOURLY WEATHER ROUNDUP
NATIONAL WEATHER SERVICE FORT WORTH TX
900 PM CDT THU AUG 17 2017

NOTE: "FAIR" INDICATES FEW OR NO CLOUDS BELOW 12,000 FEET WITH NO
SIGNIFICANT WEATHER AND/OR OBSTRUCTIONS TO VISIBILITY.

TXZ118-119-180300-
DALLAS/FORT WORTH METROPLEX

CITY           SKY/WX    TMP DP  RH WIND       PRES   REMARKS
DFW AIRPORT    MOCLDY    82  67  60 SW9       29.98R
DALLAS LOVE    MOCLDY    82  68  62 SW9       29.99R
FTW MEACHAM    CLOUDY    76  71  85 S5        29.99R
DAL-EXECUTIVE  CLOUDY    78  71  79 VRB3      29.99R
FTW-ALLIANCE   CLOUDY    77  68  73 S6        29.99R
FTW-NAS-JRB    CLOUDY    77  69  76 S5        30.00R
FTW-SPINKS     CLOUDY    76  69  78 S9G21     30.01R
ARLINGTON      MOCLDY    77  71  82 SE7       30.00R
GRAND PRAIRIE  CLEAR     79  64  61 SE5       29.98S
ADDISON        CLEAR     84  68  58 S6        29.99R
MESQUITE         N/A     82  78  89 SW6       29.99R HX  91
LANCASTER      MOCLDY    79  69  71 SW7       30.02R
$$

TXZ091>094-102>105-117-120-121-131>134-180300-
NORTH CENTRAL TEXAS

CITY           SKY/WX    TMP DP  RH WIND       PRES   REMARKS
SHRMAN/DENISON CLOUDY    82  76  81 E6        30.00R HX  90
GAINESVILLE    CLOUDY    84  76  79 S6        30.01R HX  93
BOWIE          CLOUDY    81  69  66 S6        30.00R
BRIDGEPORT     CLOUDY    77  66  67 SW5       30.00S
DECATUR        CLOUDY    79  69  70 SW7       30.00R
DENTON         CLOUDY    78  69  73 S7        30.00R
MCKINNEY       CLOUDY    82  80  94 E5        29.98R HX  94
BONHAM         MOCLDY    79  77  94 E3        29.99R
ROCKWALL       MOCLDY    82  79  92 SE3       29.99R HX  91
TERRELL        CLOUDY    83  77  82 S3        29.99R HX  92
WAXAHACHIE     LGT RAIN  75  72  91 S10       30.04R
CLEBURNE       LGT RAIN  75  72  88 SW7G13    30.04R
GRANBURY       CLOUDY    76  69  78 SE10      30.00R
$$

TXZ083>090-098>101-113>116-127>130-139>142-154-155-180300-
WESTERN NORTH TEXAS

CITY           SKY/WX    TMP DP  RH WIND       PRES   REMARKS
WICHITA FALLS  CLOUDY    82  71  69 S15       29.97R
WF-KICKAPOO    CLOUDY    83  68  61 S7        30.00R
VERNON         CLEAR     82  67  61 E6        29.99S
ABILENE        CLOUDY    75  67  76 S3        30.03R
ABILENE-DYESS  CLEAR     75  70  84 S8        30.02R
GRAHAM         CLOUDY    78  67  70 CALM      29.98S
BRECKENRIDGE   MOCLDY    78  67  69 CALM      30.01R
CISCO          CLOUDY    75  70  83 SE8       30.03S
EASTLAND       CLOUDY    75  69  82 SE8       30.02S
RANGER         CLOUDY    73  69  87 S6        30.04R
MINERAL WELLS  CLOUDY    73  68  84 SE7       29.98S
STEPHENVILLE   CLOUDY    73  67  79 SE7       30.04S
COMANCHE       CLOUDY    72  72 100 S3        30.05S
BROWNWOOD      CLOUDY    73  72  94 NE6       30.03F
COLEMAN        CLOUDY    74  68  83 CALM      30.05R
$$

TXZ143>147-156>162-174-175-180300-
CENTRAL TEXAS

CITY           SKY/WX    TMP DP  RH WIND       PRES   REMARKS
WACO           CLOUDY    74  69  85 NE9       30.00S
WACO-MCGREGOR  CLOUDY    79  66  64 NE8       30.01F
HILLSBORO      CLOUDY    75  72  88 S14       30.02F
CORSICANA      CLOUDY    83  70  64 W12G24    30.01
MEXIA          CLOUDY    77  73  85 W9        29.99R
HEARNE         CLEAR     87  72  60 SE7       29.98R HX  93
CAMERON        CLOUDY    85  71  62 N13G21    30.00R HX  90
TEMPLE         CLOUDY    80  68  66 N17G24    30.01R
KILLEEN        PTCLDY    78  70  77 N7        30.01R
KILLEEN-SKYLRK CLOUDY    79  72  79 NE8       30.02R
FORT HOOD      CLOUDY   N/A N/A N/A NE8       29.98R
HAMILTON       LGT RAIN  74  71  89 E12       30.03F
$$

TXZ095>097-106>112-122>126-135>138-148>153-164>167-180300-
EAST TEXAS

CITY           SKY/WX    TMP DP  RH WIND       PRES   REMARKS
PARIS          CLOUDY    79  77  94 E5        30.00R
SULPHUR SPRNGS CLOUDY    81  76  86 SE5       30.01R
MOUNT PLEASANT CLEAR     78  78 100 SE3       30.01R
GILMER         PTCLDY    78  76  94 CALM      30.00S
MINEOLA        CLOUDY    77  77 100 E6        29.99S
TYLER          CLEAR     81  79  94 SE5       29.99R HX  90
LONGVIEW       CLEAR     81  79  94 CALM      29.98R HX  90
MARSHALL         N/A     76  73  91 CALM      30.02R
ATHENS         PTCLDY    81  77  89 CALM      29.98R
PALESTINE      PTCLDY    84  78  83 E3        29.99R HX  94
JACKSONVILLE   CLEAR     80  77  91 CALM      30.02R
HENDERSON      CLEAR     79  76  89 CALM      30.00S
CENTER         CLEAR     83  80  89 CALM      30.01R HX  96
NACOGDOCHES    CLEAR     79  79 100 CALM      30.00R
LUFKIN         CLEAR     83  76  79 CALM      29.99R HX  91
$$

SUPPLEMENTAL OBSERVATIONS (NWS FORT WORTH AREA)

CITY           SKY/WX    TMP DP  RH WIND       PRES   REMARKS
$$

SUPPLEMENTAL OBSERVATIONS (NWS NORMAN AREA)

CITY           SKY/WX    TMP DP  RH WIND       PRES   REMARKS
GOODLETT         N/A     81  66  60 E8        29.99S
ODELL            N/A     79  71  76 E7        30.00S
CROWELL          N/A     85  71  63 E9        29.99F HX  90
KNOX CITY        N/A     84  62  47 S14       30.00S
SEYMOUR          N/A     84  64  50 S14       29.99S
$$

SUPPLEMENTAL OBSERVATIONS (NWS SAN ANGELO AREA)

CITY           SKY/WX    TMP DP  RH WIND       PRES   REMARKS
WEINERT          N/A     83  66  55 S13       30.01R
HASKELL          N/A     81  64  56 S12       30.02R
THROCKMORTON     N/A     79  67  66 S5        30.01S
STAMFORD         N/A     80  68  67 S7        30.02S
CLYDE            N/A     73  68  82 SE8       30.05S
$$

SUPPLEMENTAL OBSERVATIONS (NWS SHREVEPORT AREA)

CITY           SKY/WX    TMP DP  RH WIND       PRES   REMARKS
$$

SUPPLEMENTAL OBSERVATIONS ARE A COLLECTION OF AUTOMATED INSTRUMENTS
THAT ARE MAINTAINED BY A VARIETY OF FEDERAL AND STATE AGENCIES.
CERTAIN ELEMENTS...SUCH AS HUMIDITY VALUES AND SUSTAINED WIND
SPEEDS...MAY BE APPROXIMATED.




USA.gov is the U.S. government's official web portal to all federal, state and local government web resources and services.